KUIPER-00137

基本信息
目录编号:
65779
目录名称:
KUIPER-00166
国际标识:
2025-217T
轨道中心:
EARTH
卫星名称:
KUIPER-00137
卫星全名:
KUIPER-00137
卫星状态:
在轨 (已飞行25 天)
发射日期:
2025-09-25 UTC
国别 :
美国 (US)
星等 :
--
轨道信息
数据来源 国际轨道数据
星历时间: 2025-10-20T14:54:04+0800
6小时前
查看轨道信息
半长轴: 6833.556km
偏心率: 0.0003379
轨道倾角: 51.873°
近地点辐角 123.788°
升交点赤经 322.756°
平近点角 236.343°
近地点: 453.111km
远地点: 457.731km
周期: 93.698分钟
每日圈数: 15.368542
详细信息
使用方式:
暂无
2D轨道图
3D轨道图
轨道高度分析图
轨道倾角分析图
轨道综合分析图
查看轨道综合分析图